| time (UTC) | temp F | wind direction | speed MPH | gust MPH | rain 1hr in | rain 24hr in | rain mn in | humidity % | barometer mb |
| 20260904145411 | 79 | 141 | 0.0 | 4.0 | 0.00 | 0.00 | 0.00 | 36 | 1016.5 |
| 20260904144532 | 78 | 0 | 0.0 | 1.0 | 0.00 | 0.00 | 0.00 | 36 | 1016.5 |
| 20260904143611 | 77 | 208 | 0.0 | 5.0 | 0.00 | 0.00 | 0.00 | 35 | 1016.5 |
| 20260904142711 | 76 | 181 | 0.0 | 5.0 | 0.00 | 0.00 | 0.00 | 34 | 1016.5 |
| 20260904141832 | 76 | 186 | 1.0 | 6.0 | 0.00 | 0.00 | 0.00 | 35 | 1016.5 |
| 20260904140932 | 75 | 199 | 1.0 | 7.0 | 0.00 | 0.00 | 0.00 | 35 | 1016.5 |
| 20260904140011 | 74 | 190 | 3.0 | 8.0 | 0.00 | 0.00 | 0.00 | 36 | 1016.5 |
| 20260904135411 | 73 | 199 | 3.0 | 10.0 | 0.00 | 0.00 | 0.00 | 36 | 1016.5 |
| 20260904134511 | 72 | 195 | 4.0 | 10.0 | 0.00 | 0.00 | 0.00 | 36 | 1016.5 |
| 20260904133632 | 72 | 193 | 4.0 | 8.0 | 0.00 | 0.00 | 0.00 | 37 | 1016.5 |
| 20260904132732 | 71 | 204 | 2.0 | 9.0 | 0.00 | 0.00 | 0.00 | 37 | 1016.5 |
| 20260904131811 | 71 | 219 | 1.0 | 7.0 | 0.00 | 0.00 | 0.00 | 37 | 1016.5 |
| 20260904130911 | 71 | 210 | 3.0 | 11.0 | 0.00 | 0.00 | 0.00 | 37 | 1016.5 |
| 20260904130011 | 72 | 208 | 3.0 | 11.0 | 0.00 | 0.00 | 0.00 | 37 | 1016.5 |
| 20260904125432 | 72 | 217 | 2.0 | 8.0 | 0.00 | 0.00 | 0.00 | 36 | 1016.5 |
| 20260904124511 | 73 | 206 | 2.0 | 8.0 | 0.00 | 0.00 | 0.00 | 35 | 1016.5 |
| 20260904123633 | 73 | 205 | 2.0 | 8.0 | 0.00 | 0.00 | 0.00 | 34 | 1016.5 |
| 20260904122711 | 73 | 205 | 2.0 | 7.0 | 0.00 | 0.00 | 0.00 | 34 | 1016.5 |
| 20260904121811 | 73 | 204 | 2.0 | 8.0 | 0.00 | 0.00 | 0.00 | 35 | 1016.5 |
| 20260904120911 | 72 | 202 | 2.0 | 9.0 | 0.00 | 0.00 | 0.00 | 35 | 1016.5 |
| 20260904120011 | 73 | 202 | 2.0 | 7.0 | 0.00 | 0.00 | 0.00 | 35 | 1016.5 |
| 20260904115411 | 73 | 204 | 2.0 | 8.0 | 0.00 | 0.00 | 0.00 | 35 | 1016.5 |
| 20260904114511 | 73 | 210 | 1.0 | 9.0 | 0.00 | 0.00 | 0.00 | 35 | 1016.5 |
| 20260904113611 | 73 | 201 | 3.0 | 11.0 | 0.00 | 0.00 | 0.00 | 35 | 1016.5 |
| 20260904112711 | 73 | 205 | 2.0 | 11.0 | 0.00 | 0.00 | 0.00 | 34 | 1016.5 |
| 20260904111832 | 73 | 218 | 1.0 | 7.0 | 0.00 | 0.00 | 0.00 | 35 | 1016.5 |
| 20260904110911 | 73 | 199 | 3.0 | 8.0 | 0.00 | 0.00 | 0.00 | 34 | 1016.5 |
| 20260904110011 | 73 | 207 | 3.0 | 8.0 | 0.00 | 0.00 | 0.00 | 34 | 1016.5 |
| 20260904105411 | 73 | 203 | 2.0 | 8.0 | 0.00 | 0.00 | 0.00 | 34 | 1016.5 |
| 20260904104511 | 73 | 215 | 1.0 | 6.0 | 0.00 | 0.00 | 0.00 | 34 | 1016.5 |
| 20260904103611 | 73 | 224 | 2.0 | 10.0 | 0.00 | 0.00 | 0.00 | 33 | 1016.5 |
| 20260904102711 | 73 | 225 | 2.0 | 9.0 | 0.00 | 0.00 | 0.00 | 33 | 1016.5 |
| 20260904101811 | 74 | 214 | 1.0 | 7.0 | 0.00 | 0.00 | 0.00 | 33 | 1016.5 |
| 20260904100911 | 74 | 205 | 3.0 | 11.0 | 0.00 | 0.00 | 0.00 | 33 | 1016.5 |
| 20260904100011 | 74 | 207 | 2.0 | 12.0 | 0.00 | 0.00 | 0.00 | 32 | 1016.5 |
| 20260904095411 | 74 | 208 | 2.0 | 9.0 | 0.00 | 0.00 | 0.00 | 32 | 1016.5 |
| 20260904094511 | 74 | 204 | 3.0 | 9.0 | 0.00 | 0.00 | 0.00 | 32 | 1016.5 |
| 20260904093611 | 74 | 208 | 4.0 | 10.0 | 0.00 | 0.00 | 0.00 | 32 | 1016.5 |
| 20260904092711 | 75 | 213 | 4.0 | 9.0 | 0.00 | 0.00 | 0.00 | 31 | 1016.5 |
| 20260904091811 | 75 | 205 | 3.0 | 8.0 | 0.00 | 0.00 | 0.00 | 31 | 1016.5 |
| 20260904090911 | 75 | 209 | 3.0 | 8.0 | 0.00 | 0.00 | 0.00 | 31 | 1016.5 |
| 20260904090011 | 75 | 215 | 3.0 | 9.0 | 0.00 | 0.00 | 0.00 | 31 | 1016.5 |
| 20260904085411 | 75 | 216 | 3.0 | 9.0 | 0.00 | 0.00 | 0.00 | 31 | 1016.5 |
| 20260904084511 | 75 | 226 | 3.0 | 8.0 | 0.00 | 0.00 | 0.00 | 31 | 1016.5 |
| 20260904083611 | 75 | 226 | 3.0 | 7.0 | 0.00 | 0.00 | 0.00 | 31 | 1016.5 |
| 20260904082711 | 75 | 224 | 3.0 | 7.0 | 0.00 | 0.00 | 0.00 | 31 | 1016.5 |
| 20260904081811 | 75 | 213 | 3.0 | 9.0 | 0.00 | 0.00 | 0.00 | 31 | 1016.5 |
| 20260904080911 | 75 | 215 | 2.0 | 8.0 | 0.00 | 0.00 | 0.00 | 31 | 1016.5 |
| 20260904080032 | 75 | 206 | 2.0 | 8.0 | 0.00 | 0.00 | 0.00 | 31 | 1016.5 |
| 20260904075411 | 75 | 221 | 2.0 | 8.0 | 0.00 | 0.00 | 0.00 | 31 | 1016.5 |
| 20260904074511 | 74 | 221 | 1.0 | 8.0 | 0.00 | 0.00 | 0.00 | 32 | 1016.5 |
| 20260904073611 | 73 | 0 | 0.0 | 0.0 | 0.00 | 0.00 | 0.00 | 34 | 1016.5 |
| 20260904072711 | 74 | 156 | 0.0 | 6.0 | 0.00 | 0.00 | 0.00 | 32 | 1016.5 |
| 20260904071811 | 75 | 193 | 3.0 | 10.0 | 0.00 | 0.00 | 0.00 | 31 | 1016.5 |
| 20260904070911 | 75 | 206 | 4.0 | 12.0 | 0.00 | 0.00 | 0.00 | 30 | 1016.5 |
| 20260904070032 | 75 | 223 | 3.0 | 8.0 | 0.00 | 0.00 | 0.00 | 31 | 1016.5 |
| 20260904065411 | 75 | 221 | 4.0 | 10.0 | 0.00 | 0.00 | 0.00 | 30 | 1016.5 |
| 20260904064511 | 75 | 209 | 5.0 | 10.0 | 0.00 | 0.00 | 0.00 | 30 | 1016.5 |
| 20260904063611 | 75 | 205 | 6.0 | 9.0 | 0.00 | 0.00 | 0.00 | 30 | 1016.5 |
| 20260904062711 | 76 | 221 | 4.0 | 9.0 | 0.00 | 0.00 | 0.00 | 30 | 1016.5 |
| 20260904061811 | 76 | 238 | 4.0 | 10.0 | 0.00 | 0.00 | 0.00 | 29 | 1016.5 |
| 20260904060911 | 76 | 247 | 3.0 | 8.0 | 0.00 | 0.00 | 0.00 | 28 | 1016.5 |
| 20260904060012 | 76 | 237 | 3.0 | 9.0 | 0.00 | 0.00 | 0.00 | 29 | 1016.5 |
| 20260904055411 | 76 | 228 | 2.0 | 7.0 | 0.00 | 0.00 | 0.00 | 29 | 1016.5 |
| 20260904054511 | 76 | 227 | 2.0 | 7.0 | 0.00 | 0.00 | 0.00 | 29 | 1016.5 |
| 20260904053632 | 76 | 227 | 2.0 | 7.0 | 0.00 | 0.00 | 0.00 | 29 | 1016.5 |
| 20260904052711 | 76 | 227 | 2.0 | 7.0 | 0.00 | 0.00 | 0.00 | 29 | 1016.5 |
| 20260904051811 | 76 | 225 | 3.0 | 8.0 | 0.00 | 0.00 | 0.00 | 28 | 1016.5 |
| 20260904050911 | 76 | 225 | 3.0 | 8.0 | 0.00 | 0.00 | 0.00 | 29 | 1016.5 |
| 20260904050011 | 77 | 226 | 2.0 | 7.0 | 0.00 | 0.00 | 0.00 | 28 | 1016.5 |
| 20260904045411 | 77 | 226 | 1.0 | 6.0 | 0.00 | 0.00 | 0.00 | 28 | 1016.5 |
| 20260904044511 | 78 | 227 | 3.0 | 7.0 | 0.00 | 0.00 | 0.00 | 27 | 1016.5 |
| 20260904043611 | 78 | 227 | 3.0 | 7.0 | 0.00 | 0.00 | 0.00 | 27 | 1016.5 |
| 20260904042711 | 78 | 226 | 4.0 | 9.0 | 0.00 | 0.00 | 0.00 | 26 | 1016.5 |
| 20260904041811 | 77 | 229 | 3.0 | 8.0 | 0.00 | 0.00 | 0.00 | 27 | 1016.5 |
| 20260904040911 | 78 | 225 | 3.0 | 7.0 | 0.00 | 0.00 | 0.00 | 27 | 1016.5 |
| 20260904040032 | 77 | 237 | 3.0 | 12.0 | 0.00 | 0.00 | 0.00 | 28 | 1016.5 |
| 20260904035432 | 77 | 243 | 2.0 | 7.0 | 0.00 | 0.00 | 0.00 | 28 | 1016.5 |
| 20260904034511 | 77 | 244 | 1.0 | 4.0 | 0.00 | 0.00 | 0.00 | 28 | 1016.5 |
| 20260904033611 | 77 | 0 | 0.0 | 0.0 | 0.00 | 0.00 | 0.00 | 28 | 1016.5 |
| 20260904032732 | 77 | 244 | 1.0 | 4.0 | 0.00 | 0.00 | 0.00 | 27 | 1016.5 |
| 20260904031832 | 78 | 244 | 1.0 | 8.0 | 0.00 | 0.00 | 0.00 | 29 | 1016.5 |
| 20260904030911 | 78 | 244 | 2.0 | 5.0 | 0.00 | 0.00 | 0.00 | 28 | 1016.5 |
| 20260904030011 | 78 | 243 | 1.0 | 5.0 | 0.00 | 0.00 | 0.00 | 27 | 1016.5 |
| 20260904025432 | 78 | 241 | 2.0 | 5.0 | 0.00 | 0.00 | 0.00 | 27 | 1016.5 |
| 20260904024511 | 78 | 229 | 3.0 | 9.0 | 0.00 | 0.00 | 0.00 | 25 | 1016.5 |
| 20260904023632 | 78 | 226 | 2.0 | 11.0 | 0.00 | 0.00 | 0.00 | 25 | 1016.5 |
| 20260904022711 | 78 | 240 | 2.0 | 7.0 | 0.00 | 0.00 | 0.00 | 25 | 1016.5 |
| 20260904021811 | 78 | 206 | 1.0 | 7.0 | 0.00 | 0.00 | 0.00 | 26 | 1016.5 |
| 20260904020911 | 79 | 138 | 1.0 | 3.0 | 0.00 | 0.00 | 0.00 | 26 | 1016.5 |
| 20260904020011 | 78 | 90 | 1.0 | 6.0 | 0.00 | 0.00 | 0.00 | 27 | 1016.5 |
| 20260904015411 | 78 | 62 | 0.0 | 6.0 | 0.00 | 0.00 | 0.00 | 27 | 1016.5 |
| 20260904014511 | 78 | 61 | 0.0 | 2.0 | 0.00 | 0.00 | 0.00 | 26 | 1016.5 |
| 20260904013611 | 78 | 0 | 0.0 | 0.0 | 0.00 | 0.03 | 0.00 | 27 | 1016.5 |
| 20260904012732 | 79 | 0 | 0.0 | 0.0 | 0.00 | 0.03 | 0.00 | 28 | 1016.5 |
| 20260904011811 | 80 | 0 | 0.0 | 0.0 | 0.00 | 0.03 | 0.00 | 26 | 1016.5 |
| 20260904010911 | 81 | 0 | 0.0 | 1.0 | 0.00 | 0.03 | 0.00 | 24 | 1016.5 |
| 20260904010011 | 82 | 0 | 0.0 | 0.0 | 0.00 | 0.03 | 0.00 | 20 | 1016.5 |
| 20260904005411 | 83 | 0 | 0.0 | 0.0 | 0.00 | 0.03 | 0.00 | 20 | 1016.5 |
| 20260904004512 | 83 | 0 | 0.0 | 0.0 | 0.00 | 0.03 | 0.00 | 21 | 1016.5 |
| 20260904003633 | 83 | 60 | 1.0 | 4.0 | 0.00 | 0.03 | 0.00 | 21 | 1016.5 |
| 20260904002732 | 83 | 60 | 0.0 | 4.0 | 0.00 | 0.03 | 0.00 | 23 | 1016.5 |
| 20260904001811 | 84 | 60 | 0.0 | 4.0 | 0.00 | 0.03 | 0.00 | 22 | 1016.5 |
| 20260904000911 | 84 | 60 | 0.0 | 1.0 | 0.00 | 0.03 | 0.00 | 21 | 1016.5 |
| 20260904000011 | 83 | 0 | 0.0 | 0.0 | 0.00 | 0.03 | 0.00 | 24 | 1016.5 |
| 20260903235411 | 82 | 0 | 0.0 | 0.0 | 0.00 | 0.03 | 0.00 | 24 | 1016.5 |
| 20260903234511 | 83 | 60 | 1.0 | 4.0 | 0.00 | 0.03 | 0.00 | 24 | 1016.5 |
| 20260903233611 | 83 | 0 | 0.0 | 0.0 | 0.00 | 0.03 | 0.00 | 22 | 1016.5 |
| 20260903232712 | 84 | 60 | 1.0 | 5.0 | 0.00 | 0.03 | 0.00 | 21 | 1016.5 |
| 20260903231811 | 84 | 60 | 1.0 | 5.0 | 0.00 | 0.03 | 0.00 | 22 | 1016.5 |
| 20260903230911 | 84 | 60 | 1.0 | 4.0 | 0.00 | 0.03 | 0.00 | 23 | 1016.5 |
| 20260903230011 | 83 | 60 | 2.0 | 6.0 | 0.00 | 0.03 | 0.00 | 23 | 1016.5 |
| 20260903225411 | 83 | 61 | 1.0 | 5.0 | 0.00 | 0.03 | 0.00 | 23 | 1016.5 |
| 20260903224533 | 84 | 61 | 1.0 | 5.0 | 0.00 | 0.03 | 0.00 | 22 | 1016.5 |
| 20260903223611 | 84 | 58 | 2.0 | 6.0 | 0.00 | 0.03 | 0.00 | 21 | 1016.5 |
| 20260903222711 | 86 | 31 | 3.0 | 7.0 | 0.00 | 0.03 | 0.00 | 21 | 1016.5 |
| 20260903221811 | 87 | 16 | 3.0 | 8.0 | 0.00 | 0.03 | 0.00 | 21 | 1016.5 |
| 20260903220911 | 87 | 26 | 3.0 | 10.0 | 0.00 | 0.03 | 0.00 | 20 | 1016.5 |
| 20260903220011 | 87 | 48 | 3.0 | 10.0 | 0.00 | 0.03 | 0.00 | 23 | 1016.5 |
| 20260903215411 | 87 | 53 | 3.0 | 9.0 | 0.00 | 0.03 | 0.00 | 21 | 1016.5 |
| 20260903214512 | 87 | 53 | 2.0 | 9.0 | 0.00 | 0.03 | 0.00 | 21 | 1016.5 |
| 20260903213611 | 87 | 54 | 3.0 | 7.0 | 0.00 | 0.03 | 0.00 | 23 | 1016.5 |
| 20260903212711 | 87 | 36 | 5.0 | 10.0 | 0.00 | 0.03 | 0.00 | 24 | 1016.5 |
| 20260903211811 | 87 | 14 | 4.0 | 9.0 | 0.00 | 0.03 | 0.00 | 25 | 1016.5 |
| 20260903210911 | 86 | 13 | 2.0 | 9.0 | 0.00 | 0.03 | 0.00 | 24 | 1016.5 |
| 20260903210011 | 86 | 7 | 2.0 | 9.0 | 0.00 | 0.03 | 0.00 | 24 | 1016.5 |
| 20260903205411 | 86 | 22 | 4.0 | 9.0 | 0.00 | 0.03 | 0.00 | 25 | 1016.5 |
| 20260903204511 | 86 | 15 | 5.0 | 10.0 | 0.00 | 0.03 | 0.00 | 26 | 1016.5 |
| 20260903203611 | 85 | 2 | 4.0 | 10.0 | 0.00 | 0.03 | 0.00 | 26 | 1016.5 |
| 20260903202712 | 85 | 9 | 3.0 | 8.0 | 0.00 | 0.03 | 0.00 | 28 | 1016.5 |
| 20260903201833 | 84 | 47 | 5.0 | 10.0 | 0.00 | 0.03 | 0.00 | 27 | 1016.5 |
| 20260903200912 | 84 | 32 | 4.0 | 9.0 | 0.00 | 0.03 | 0.00 | 29 | 1016.5 |
| 20260903200011 | 84 | 21 | 4.0 | 10.0 | 0.00 | 0.03 | 0.00 | 29 | 1016.5 |
| 20260903195412 | 83 | 18 | 3.0 | 10.0 | 0.00 | 0.03 | 0.00 | 30 | 1016.5 |
| 20260903194511 | 83 | 347 | 2.0 | 9.0 | 0.00 | 0.03 | 0.00 | 30 | 1016.5 |
| 20260903193633 | 84 | 3 | 3.0 | 10.0 | 0.00 | 0.03 | 0.00 | 30 | 1016.5 |
| 20260903192712 | 83 | 20 | 3.0 | 8.0 | 0.00 | 0.03 | 0.00 | 30 | 1016.5 |
| 20260903191812 | 83 | 9 | 2.0 | 9.0 | 0.00 | 0.03 | 0.00 | 29 | 1016.5 |
| 20260903190911 | 83 | 14 | 3.0 | 8.0 | 0.00 | 0.03 | 0.00 | 31 | 1016.5 |
| 20260903190011 | 83 | 32 | 5.0 | 10.0 | 0.00 | 0.03 | 0.00 | 30 | 1016.5 |
| 20260903185412 | 83 | 34 | 2.0 | 9.0 | 0.00 | 0.03 | 0.00 | 30 | 1016.5 |
| 20260903184511 | 83 | 339 | 2.0 | 8.0 | 0.00 | 0.10 | 0.00 | 30 | 1016.5 |
| 20260903183612 | 83 | 41 | 2.0 | 7.0 | 0.00 | 0.23 | 0.00 | 32 | 1016.5 |
| 20260903182712 | 82 | 353 | 3.0 | 9.0 | 0.00 | 0.23 | 0.00 | 32 | 1016.5 |
| 20260903181812 | 82 | 358 | 2.0 | 8.0 | 0.00 | 0.23 | 0.00 | 33 | 1016.5 |
| 20260903180911 | 81 | 344 | 2.0 | 10.0 | 0.00 | 0.24 | 0.00 | 32 | 1016.5 |
| 20260903180011 | 81 | 10 | 4.0 | 11.0 | 0.00 | 0.24 | 0.00 | 35 | 1016.5 |
| 20260903175411 | 81 | 18 | 5.0 | 10.0 | 0.00 | 0.24 | 0.00 | 38 | 1016.5 |
| 20260903174512 | 81 | 8 | 3.0 | 8.0 | 0.00 | 0.24 | 0.00 | 37 | 1016.5 |
| 20260903173632 | 80 | 352 | 3.0 | 8.0 | 0.00 | 0.24 | 0.00 | 37 | 1016.5 |
| 20260903172711 | 79 | 355 | 3.0 | 9.0 | 0.00 | 0.25 | 0.00 | 41 | 1016.5 |
| 20260903171811 | 79 | 337 | 4.0 | 10.0 | 0.00 | 0.28 | 0.00 | 42 | 1016.5 |
| 20260903170911 | 78 | 331 | 2.0 | 8.0 | 0.00 | 0.28 | 0.00 | 44 | 1016.5 |
| 20260903170011 | 78 | 332 | 1.0 | 8.0 | 0.00 | 0.28 | 0.00 | 41 | 1016.5 |
| 20260903165411 | 77 | 332 | 2.0 | 8.0 | 0.00 | 0.28 | 0.00 | 43 | 1016.5 |
| 20260903164532 | 77 | 324 | 2.0 | 8.0 | 0.00 | 0.28 | 0.00 | 44 | 1016.5 |
| 20260903163633 | 77 | 333 | 2.0 | 10.0 | 0.00 | 0.28 | 0.00 | 46 | 1016.5 |
| 20260903162712 | 77 | 66 | 2.0 | 7.0 | 0.00 | 0.28 | 0.00 | 46 | 1016.5 |
| 20260903161832 | 77 | 30 | 3.0 | 6.0 | 0.00 | 0.28 | 0.00 | 47 | 1016.5 |
| 20260903160911 | 76 | 31 | 1.0 | 6.0 | 0.00 | 0.28 | 0.00 | 48 | 1016.5 |
| 20260903160011 | 76 | 31 | 1.0 | 6.0 | 0.00 | 0.28 | 0.00 | 48 | 1016.5 |
| 20260903155411 | 75 | 32 | 2.0 | 6.0 | 0.00 | 0.28 | 0.00 | 50 | 1016.5 |
| 20260903154512 | 74 | 30 | 0.0 | 4.0 | 0.00 | 0.28 | 0.00 | 47 | 1016.5 |
| 20260903153611 | 73 | 0 | 0.0 | 1.0 | 0.00 | 0.28 | 0.00 | 48 | 1016.5 |
| 20260903152732 | 73 | 0 | 0.0 | 0.0 | 0.00 | 0.28 | 0.00 | 48 | 1016.5 |
| 20260903151812 | 73 | 223 | 1.0 | 4.0 | 0.00 | 0.28 | 0.00 | 48 | 1016.5 |
| 20260903150911 | 72 | 0 | 0.0 | 0.0 | 0.00 | 0.28 | 0.00 | 48 | 1016.5 |
| 20260903150012 | 71 | 0 | 0.0 | 0.0 | 0.00 | 0.28 | 0.00 | 51 | 1016.5 |